TimeEST,TemperatureF,Dew PointF,Humidity,Sea Level PressureIn,VisibilityMPH,Wind Direction,Wind SpeedMPH,Gust SpeedMPH,PrecipitationIn,Events,Conditions,WindDirDegrees,DateUTC
12:55 AM,47.5,45.7,93,29.94,10.0,South,3.5,-,0.11,Rain,Light Rain,170,2013-02-13 05:55:00
1:24 AM,48.2,46.4,93,29.89,10.0,ESE,4.6,-,N/A,,Partly Cloudy,110,2013-02-13 06:24:00
1:55 AM,47.7,47.1,98,29.88,10.0,Calm,Calm,-,0.02,Rain,Light Rain,0,2013-02-13 06:55:00
2:06 AM,48.2,46.4,93,29.87,10.0,Calm,Calm,-,N/A,,Mostly Cloudy,0,2013-02-13 07:06:00
2:55 AM,47.5,46.9,98,29.87,4.0,Calm,Calm,-,0.05,Rain,Rain,0,2013-02-13 07:55:00
3:55 AM,46.8,46.4,99,29.85,10.0,Calm,Calm,-,0.03,,Overcast,0,2013-02-13 08:55:00
4:55 AM,46.0,45.7,99,29.82,9.0,SE,3.5,-,0.05,,Light Drizzle,130,2013-02-13 09:55:00
5:03 AM,46.4,46.4,100,29.82,7.0,ESE,4.6,-,N/A,,Overcast,120,2013-02-13 10:03:00
5:08 AM,46.4,46.4,100,29.83,6.0,ESE,4.6,-,N/A,,Overcast,120,2013-02-13 10:08:00
5:15 AM,46.4,46.4,100,29.82,8.0,SE,3.5,-,N/A,Rain,Light Rain,130,2013-02-13 10:15:00
5:16 AM,46.4,46.4,100,29.82,8.0,ESE,3.5,-,N/A,Rain,Light Rain,120,2013-02-13 10:16:00
5:20 AM,46.4,46.4,100,29.83,7.0,SE,4.6,-,N/A,Rain,Light Rain,140,2013-02-13 10:20:00
5:55 AM,45.9,45.7,99,29.82,10.0,Calm,Calm,-,0.01,Rain,Light Rain,0,2013-02-13 10:55:00
6:21 AM,46.4,46.4,100,29.82,9.0,Calm,Calm,-,N/A,,Overcast,0,2013-02-13 11:21:00
6:55 AM,45.9,45.7,99,29.82,7.0,East,3.5,-,0.01,,Overcast,80,2013-02-13 11:55:00
7:01 AM,46.4,46.4,100,29.83,7.0,Calm,Calm,-,N/A,,Overcast,0,2013-02-13 12:01:00
7:11 AM,46.4,46.4,100,29.82,6.0,Calm,Calm,-,N/A,,Overcast,0,2013-02-13 12:11:00
7:32 AM,46.4,46.4,100,29.82,3.0,NE,4.6,-,N/A,,Overcast,50,2013-02-13 12:32:00
7:37 AM,46.4,46.4,100,29.82,2.5,ENE,3.5,-,N/A,,Overcast,60,2013-02-13 12:37:00
7:55 AM,46.2,45.9,99,29.82,2.5,ENE,4.6,-,N/A,,Overcast,60,2013-02-13 12:55:00
8:19 AM,46.4,46.4,100,29.81,3.0,ENE,6.9,-,N/A,,Overcast,60,2013-02-13 13:19:00
8:55 AM,46.6,46.4,99,29.81,3.0,ENE,6.9,-,0.01,,Overcast,60,2013-02-13 13:55:00
9:07 AM,46.4,46.4,100,29.81,2.5,NE,4.6,-,N/A,,Overcast,40,2013-02-13 14:07:00
9:22 AM,46.4,46.4,100,29.80,3.0,ENE,4.6,-,N/A,,Overcast,70,2013-02-13 14:22:00
9:29 AM,46.4,46.4,100,29.79,2.5,ENE,5.8,-,N/A,,Overcast,70,2013-02-13 14:29:00
9:31 AM,46.4,46.4,100,29.78,2.5,ENE,5.8,-,N/A,,Overcast,70,2013-02-13 14:31:00
9:55 AM,46.9,46.8,99,29.79,5.0,NE,5.8,-,N/A,,Overcast,50,2013-02-13 14:55:00
10:02 AM,46.4,46.4,100,29.79,7.0,ENE,5.8,-,N/A,,Overcast,70,2013-02-13 15:02:00
10:36 AM,48.2,46.4,93,29.77,10.0,East,6.9,-,N/A,,Overcast,80,2013-02-13 15:36:00
10:55 AM,47.5,47.1,99,29.75,10.0,Variable,3.5,-,N/A,,Overcast,0,2013-02-13 15:55:00
11:00 AM,48.2,48.2,100,29.78,10.0,NE,3.5,-,N/A,,Overcast,40,2013-02-13 16:00:00
11:06 AM,48.2,48.2,100,29.77,10.0,NNE,4.6,-,N/A,,Overcast,20,2013-02-13 16:06:00
11:55 AM,47.7,47.5,99,29.71,2.5,East,6.9,-,N/A,,Overcast,90,2013-02-13 16:55:00
12:13 PM,48.2,48.2,100,29.74,3.0,Calm,Calm,-,N/A,,Overcast,0,2013-02-13 17:13:00
12:25 PM,48.2,48.2,100,29.71,0.8,East,5.8,-,N/A,,Overcast,100,2013-02-13 17:25:00
12:55 PM,48.0,47.8,99,29.70,1.0,ESE,4.6,-,N/A,,Overcast,120,2013-02-13 17:55:00
1:13 PM,48.2,48.2,100,29.67,3.0,East,4.6,-,N/A,,Overcast,100,2013-02-13 18:13:00
1:34 PM,48.2,48.2,100,29.65,7.0,SE,6.9,-,N/A,,Overcast,130,2013-02-13 18:34:00
1:55 PM,48.6,48.4,99,29.64,1.0,SE,5.8,-,N/A,,Overcast,130,2013-02-13 18:55:00
2:29 PM,50.0,48.2,94,29.65,1.0,SSW,4.6,-,N/A,Rain,Light Rain,200,2013-02-13 19:29:00
2:55 PM,49.3,49.1,99,29.66,1.0,Variable,3.5,-,0.00,,Light Drizzle,0,2013-02-13 19:55:00
3:06 PM,50.0,50.0,100,29.67,3.0,West,9.2,-,N/A,,Overcast,260,2013-02-13 20:06:00
3:14 PM,50.0,50.0,100,29.67,1.0,WSW,8.1,-,N/A,Rain,Light Rain,240,2013-02-13 20:14:00
3:28 PM,50.0,50.0,100,29.66,1.0,SW,8.1,-,N/A,Rain,Light Rain,230,2013-02-13 20:28:00
3:29 PM,50.0,50.0,100,29.67,1.0,SW,8.1,-,N/A,,Overcast,230,2013-02-13 20:29:00
3:36 PM,50.0,50.0,100,29.66,1.0,Variable,4.6,-,N/A,Rain,Light Rain,0,2013-02-13 20:36:00
3:55 PM,50.2,50.0,99,29.66,10.0,SW,6.9,-,0.01,Rain,Light Rain,220,2013-02-13 20:55:00
3:57 PM,50.0,50.0,100,29.68,10.0,WSW,9.2,-,N/A,,Overcast,240,2013-02-13 20:57:00
4:05 PM,50.0,50.0,100,29.67,10.0,WSW,8.1,-,N/A,,Overcast,250,2013-02-13 21:05:00
4:25 PM,51.8,50.0,94,29.65,10.0,WSW,9.2,17.3,N/A,,Overcast,240,2013-02-13 21:25:00
4:33 PM,51.8,51.8,100,29.65,10.0,SW,10.4,-,N/A,,Overcast,230,2013-02-13 21:33:00
4:55 PM,51.4,51.3,99,29.67,10.0,WSW,13.8,-,0.00,,Overcast,240,2013-02-13 21:55:00
5:17 PM,51.8,51.8,100,29.67,10.0,WSW,16.1,19.6,N/A,,Overcast,250,2013-02-13 22:17:00
5:55 PM,51.8,50.2,94,29.69,10.0,WSW,13.8,-,N/A,,Mostly Cloudy,250,2013-02-13 22:55:00
6:55 PM,51.3,48.4,90,29.71,10.0,WSW,13.8,19.6,N/A,,Mostly Cloudy,250,2013-02-13 23:55:00
7:55 PM,51.1,46.8,85,29.73,10.0,West,15.0,-,N/A,,Overcast,260,2013-02-14 00:55:00
8:02 PM,50.0,46.4,87,29.73,10.0,West,11.5,-,N/A,,Scattered Clouds,260,2013-02-14 01:02:00
8:55 PM,50.0,46.6,88,29.76,10.0,West,10.4,-,N/A,,Clear,270,2013-02-14 01:55:00
9:55 PM,48.9,46.2,90,29.78,10.0,West,10.4,-,N/A,,Clear,270,2013-02-14 02:55:00
10:55 PM,48.7,45.9,90,29.81,10.0,West,10.4,-,N/A,,Clear,280,2013-02-14 03:55:00
11:55 PM,48.0,43.5,84,29.83,10.0,NW,9.2,-,N/A,,Clear,310,2013-02-14 04:55:00